• Em Portugal
  • Lista de países
  • Para 7 dias
  • Temperatura da água
  • Mapas de satélite
  • Mapa do tempo
  • Widgets de tempo
  • user-avatar
    Iniciar Sessão

    Previsão horária em Hobart

    Hoje, 22 Outubro, Segunda-feira

    Tempo Temperatura Precipitação Vento Pressão Humidade
    00:00 +8°C° 0 mm 2 m/s 747 mmHg 97%
    01:00 +8°C° 0 mm 2 m/s 746 mmHg 97%
    02:00 +8°C° 0 mm 2 m/s 746 mmHg 98%
    03:00 +8°C° 0 mm 2 m/s 746 mmHg 98%
    04:00 +7°C° 0 mm 2 m/s 745 mmHg 98%
    05:00 +9°C° 0 mm 2 m/s 745 mmHg 93%
    06:00 +10°C° 0 mm 2 m/s 745 mmHg 87%
    07:00 +12°C° 0 mm 2 m/s 744 mmHg 82%
    08:00 +15°C° 0 mm 2 m/s 744 mmHg 68%
    09:00 +18°C° 0 mm 3 m/s 744 mmHg 55%
    10:00 +20°C° 0 mm 4 m/s 744 mmHg 42%
    11:00 +21°C° 0 mm 4 m/s 743 mmHg 38%
    12:00 +23°C° 0 mm 4 m/s 743 mmHg 33%
    13:00 +25°C° 0 mm 3 m/s 742 mmHg 28%
    14:00 +25°C° 0 mm 4 m/s 742 mmHg 30%
    15:00 +25°C° 0 mm 4 m/s 742 mmHg 32%
    16:00 +22°C° 0 mm 5 m/s 741 mmHg 36%
    17:00 +20°C° 0 mm 5 m/s 742 mmHg 43%
    18:00 +18°C° 0 mm 4 m/s 742 mmHg 50%
    19:00 +15°C° 0 mm 4 m/s 742 mmHg 57%
    20:00 +14°C° 0 mm 4 m/s 742 mmHg 60%
    21:00 +13°C° 0 mm 4 m/s 742 mmHg 64%
    22:00 +12°C° 0 mm 3 m/s 742 mmHg 69%
    23:00 +11°C° 0 mm 3 m/s 742 mmHg 75%

    Amanhã, 23 Outubro, Terça-feira

    Tempo Temperatura Precipitação Vento Pressão Humidade
    00:00 +12°C° 0 mm 2 m/s 742 mmHg 80%
    01:00 +10°C° 0 mm 2 m/s 742 mmHg 85%
    02:00 +10°C° 0 mm 2 m/s 742 mmHg 86%
    03:00 +9°C° 0 mm 2 m/s 742 mmHg 88%
    04:00 +9°C° 0 mm 2 m/s 742 mmHg 89%
    05:00 +10°C° 0 mm 2 m/s 742 mmHg 84%
    06:00 +12°C° 0 mm 2 m/s 742 mmHg 79%
    07:00 +12°C° 0 mm 3 m/s 742 mmHg 74%
    08:00 +13°C° 0 mm 3 m/s 742 mmHg 65%
    09:00 +14°C° 0 mm 4 m/s 742 mmHg 56%
    10:00 +15°C° 0 mm 5 m/s 742 mmHg 47%
    11:00 +14°C° 0 mm 5 m/s 742 mmHg 51%
    12:00 +13°C° 0 mm 5 m/s 743 mmHg 56%
    13:00 +13°C° 0 mm 6 m/s 743 mmHg 60%
    14:00 +11°C° 0 mm 6 m/s 743 mmHg 56%
    15:00 +11°C° 0 mm 6 m/s 743 mmHg 52%
    16:00 +11°C° 0 mm 6 m/s 744 mmHg 48%
    17:00 +10°C° 0 mm 6 m/s 744 mmHg 54%
    18:00 +8°C° 0 mm 5 m/s 745 mmHg 59%
    19:00 +6°C° 0 mm 5 m/s 746 mmHg 64%
    20:00 +6°C° 0 mm 5 m/s 747 mmHg 69%
    21:00 +5°C° 0 mm 5 m/s 747 mmHg 75%
    22:00 +3°C° 0 mm 5 m/s 748 mmHg 80%
    23:00 +3°C° 0 mm 5 m/s 748 mmHg 81%

    Depois de amanhã, 24 Outubro, Quarta-feira

    Tempo Temperatura Precipitação Vento Pressão Humidade
    00:00 +3°C° 0 mm 4 m/s 749 mmHg 83%
    01:00 +3°C° 0 mm 4 m/s 749 mmHg 84%
    02:00 +3°C° 0 mm 4 m/s 749 mmHg 85%
    03:00 +3°C° 0 mm 4 m/s 750 mmHg 85%
    04:00 +3°C° 0 mm 4 m/s 750 mmHg 86%
    05:00 +4°C° 0 mm 4 m/s 751 mmHg 79%
    06:00 +5°C° 0 mm 5 m/s 751 mmHg 72%
    07:00 +7°C° 0 mm 5 m/s 752 mmHg 66%
    08:00 +8°C° 0 mm 4 m/s 752 mmHg 59%
    09:00 +10°C° 0 mm 4 m/s 752 mmHg 52%
    10:00 +11°C° 0 mm 4 m/s 753 mmHg 45%
    11:00 +12°C° 0 mm 3 m/s 753 mmHg 44%
    12:00 +13°C° 0 mm 3 m/s 753 mmHg 44%
    13:00 +13°C° 0 mm 3 m/s 753 mmHg 43%
    14:00 +13°C° 0 mm 3 m/s 753 mmHg 43%
    15:00 +14°C° 0 mm 3 m/s 753 mmHg 43%
    16:00 +14°C° 0 mm 3 m/s 753 mmHg 43%
    17:00 +12°C° 0 mm 3 m/s 753 mmHg 52%
    18:00 +10°C° 0 mm 2 m/s 753 mmHg 60%
    19:00 +8°C° 0 mm 2 m/s 754 mmHg 68%
    20:00 +8°C° 0 mm 2 m/s 754 mmHg 70%
    21:00 +8°C° 0 mm 2 m/s 754 mmHg 73%
    22:00 +7°C° 0 mm 2 m/s 754 mmHg 75%
    23:00 +6°C° 0 mm 2 m/s 754 mmHg 80%

    25 Outubro, Quinta-feira

    Tempo Temperatura Precipitação Vento Pressão Humidade
    00:00 +4°C° 0 mm 3 m/s 753 mmHg 85%
    01:00 +3°C° 0 mm 3 m/s 753 mmHg 90%
    02:00 +4°C° 0 mm 3 m/s 752 mmHg 89%
    03:00 +4°C° 0 mm 3 m/s 752 mmHg 89%
    04:00 +4°C° 0 mm 3 m/s 751 mmHg 89%
    05:00 +5°C° 0 mm 4 m/s 751 mmHg 82%
    06:00 +6°C° 0 mm 4 m/s 750 mmHg 76%
    07:00 +8°C° 0 mm 4 m/s 750 mmHg 69%
    08:00 +11°C° 0 mm 3 m/s 750 mmHg 60%
    09:00 +13°C° 0 mm 3 m/s 749 mmHg 50%
    10:00 +16°C° 0 mm 3 m/s 749 mmHg 41%
    11:00 +17°C° 0 mm 3 m/s 748 mmHg 39%
    12:00 +17°C° 0 mm 3 m/s 747 mmHg 37%
    13:00 +18°C° 0 mm 3 m/s 747 mmHg 35%
    14:00 +17°C° 0.1 mm 3 m/s 746 mmHg 45%
    15:00 +16°C° 0.1 mm 3 m/s 745 mmHg 56%
    16:00 +13°C° 0.1 mm 3 m/s 744 mmHg 66%
    17:00 +13°C° 0.2 mm 2 m/s 744 mmHg 74%
    18:00 +12°C° 0.2 mm 2 m/s 743 mmHg 83%
    19:00 +10°C° 0.2 mm 1 m/s 743 mmHg 92%
    20:00 +10°C° 0.1 mm 1 m/s 743 mmHg 93%
    21:00 +8°C° 0.1 mm 2 m/s 743 mmHg 95%
    22:00 +8°C° 0.1 mm 2 m/s 743 mmHg 97%
    23:00 +8°C° 0 mm 2 m/s 743 mmHg 96%

    26 Outubro, Sexta-feira

    Tempo Temperatura Precipitação Vento Pressão Humidade
    00:00 +7°C° 0 mm 3 m/s 743 mmHg 94%
    01:00 +6°C° 0 mm 4 m/s 742 mmHg 93%
    02:00 +6°C° 0 mm 4 m/s 742 mmHg 93%
    03:00 +6°C° 0 mm 4 m/s 743 mmHg 93%
    04:00 +6°C° 0 mm 4 m/s 743 mmHg 94%
    05:00 +7°C° 0.1 mm 5 m/s 743 mmHg 92%
    06:00 +7°C° 0.1 mm 5 m/s 744 mmHg 91%
    07:00 +8°C° 0.1 mm 6 m/s 744 mmHg 89%
    08:00 +9°C° 0.1 mm 6 m/s 744 mmHg 82%
    09:00 +9°C° 0.1 mm 6 m/s 745 mmHg 74%
    10:00 +10°C° 0.1 mm 7 m/s 745 mmHg 66%
    11:00 +11°C° 0 mm 6 m/s 745 mmHg 62%
    12:00 +11°C° 0 mm 6 m/s 745 mmHg 58%
    13:00 +11°C° 0 mm 6 m/s 745 mmHg 55%
    14:00 +11°C° 0 mm 6 m/s 745 mmHg 55%
    15:00 +12°C° 0 mm 5 m/s 745 mmHg 55%
    16:00 +12°C° 0 mm 5 m/s 745 mmHg 55%
    17:00 +10°C° 0 mm 5 m/s 745 mmHg 61%
    18:00 +10°C° 0 mm 4 m/s 746 mmHg 67%
    19:00 +7°C° 0 mm 4 m/s 746 mmHg 72%
    20:00 +7°C° 0 mm 4 m/s 746 mmHg 77%
    21:00 +6°C° 0 mm 4 m/s 746 mmHg 81%
    22:00 +7°C° 0 mm 3 m/s 746 mmHg 86%
    23:00 +7°C° 0 mm 3 m/s 745 mmHg 85%

    27 Outubro, Sábado

    Tempo Temperatura Precipitação Vento Pressão Humidade
    00:00 +7°C° 0 mm 3 m/s 745 mmHg 84%
    01:00 +7°C° 0 mm 3 m/s 745 mmHg 84%
    02:00 +8°C° 0 mm 3 m/s 744 mmHg 83%
    03:00 +8°C° 0 mm 3 m/s 744 mmHg 83%
    04:00 +7°C° 0 mm 4 m/s 743 mmHg 83%
    05:00 +9°C° 0.1 mm 3 m/s 743 mmHg 82%
    06:00 +10°C° 0.1 mm 3 m/s 743 mmHg 81%
    07:00 +10°C° 0.1 mm 3 m/s 743 mmHg 79%
    08:00 +11°C° 0.1 mm 3 m/s 743 mmHg 75%
    09:00 +11°C° 0.1 mm 4 m/s 742 mmHg 71%
    10:00 +12°C° 0.1 mm 4 m/s 742 mmHg 68%
    11:00 +13°C° 0.1 mm 4 m/s 742 mmHg 65%
    12:00 +13°C° 0.1 mm 5 m/s 741 mmHg 63%
    13:00 +14°C° 0.1 mm 5 m/s 741 mmHg 61%
    14:00 +12°C° 0.6 mm 5 m/s 741 mmHg 69%
    15:00 +10°C° 0.6 mm 5 m/s 741 mmHg 77%
    16:00 +9°C° 0.6 mm 5 m/s 742 mmHg 85%
    17:00 +8°C° 0.3 mm 5 m/s 743 mmHg 89%
    18:00 +7°C° 0.3 mm 5 m/s 743 mmHg 92%
    19:00 +6°C° 0.3 mm 5 m/s 744 mmHg 96%
    20:00 +6°C° 0.1 mm 5 m/s 745 mmHg 95%
    21:00 +5°C° 0.1 mm 5 m/s 746 mmHg 95%
    22:00 +3°C° 0.1 mm 5 m/s 747 mmHg 94%
    23:00 +2°C° 0 mm 5 m/s 747 mmHg 95%

    28 Outubro, Domingo

    Tempo Temperatura Precipitação Vento Pressão Humidade
    00:00 +1°C° 0 mm 4 m/s 748 mmHg 95%
    01:00 0°C° 0 mm 4 m/s 748 mmHg 95%
    02:00 0°C° 0 mm 4 m/s 748 mmHg 96%
    03:00 -1°C° 0 mm 4 m/s 748 mmHg 96%
    04:00 -1°C° 0 mm 4 m/s 749 mmHg 96%
    05:00 +1°C° 0 mm 4 m/s 749 mmHg 93%
    06:00 +3°C° 0 mm 4 m/s 750 mmHg 90%
    07:00 +4°C° 0 mm 4 m/s 750 mmHg 87%
    08:00 +7°C° 0 mm 3 m/s 750 mmHg 75%
    09:00 +9°C° 0 mm 3 m/s 751 mmHg 64%
    10:00 +10°C° 0 mm 3 m/s 751 mmHg 52%
    11:00 +12°C° 0 mm 3 m/s 751 mmHg 47%
    12:00 +14°C° 0 mm 3 m/s 751 mmHg 42%
    13:00 +17°C° 0 mm 2 m/s 751 mmHg 37%
    14:00 +16°C° 0 mm 3 m/s 750 mmHg 38%
    15:00 +16°C° 0 mm 3 m/s 750 mmHg 39%
    16:00 +16°C° 0 mm 3 m/s 750 mmHg 40%
    17:00 +14°C° 0 mm 2 m/s 751 mmHg 51%
    18:00 +10°C° 0 mm 2 m/s 751 mmHg 62%
    19:00 +8°C° 0 mm 2 m/s 751 mmHg 73%
    20:00 +6°C° 0 mm 2 m/s 751 mmHg 79%
    21:00 +5°C° 0 mm 2 m/s 752 mmHg 86%
    22:00 +5°C° 0 mm 1 m/s 752 mmHg 93%
    23:00 +3°C° 0 mm 2 m/s 752 mmHg 94%
    Mostrar mais